Time,TemperatureF,DewpointF,PressureIn,WindDirection,WindDirectionDegrees,WindSpeedMPH,WindSpeedGustMPH,Humidity,HourlyPrecipIn,Conditions,Clouds,dailyrainin,SoftwareType,DateUTC
2013-01-28 00:02:00,19.0,16.0,-100.00,NW,310,3.0,4.0,86,0.00,,,0.00,,2013-01-28 06:02:00,
2013-01-28 00:11:00,19.0,16.0,-100.00,NNW,340,3.0,4.0,85,0.00,,,0.00,,2013-01-28 06:11:00,
2013-01-28 00:21:00,20.0,16.0,-100.00,NW,310,3.0,4.0,85,0.00,,,0.00,,2013-01-28 06:21:00,
2013-01-28 00:32:00,20.0,16.0,-100.00,WNW,300,4.0,4.0,85,0.00,,,0.00,,2013-01-28 06:32:00,
2013-01-28 00:42:00,20.0,16.0,-100.00,NW,310,6.0,6.0,85,0.00,,,0.00,,2013-01-28 06:42:00,
2013-01-28 00:52:00,20.0,16.0,-100.00,NW,315,4.0,6.0,85,0.00,,,0.00,,2013-01-28 06:52:00,
2013-01-28 01:02:00,20.0,16.0,-100.00,NW,305,4.0,4.0,85,0.00,,,0.00,,2013-01-28 07:02:00,
2013-01-28 01:11:00,20.0,16.0,-100.00,WNW,300,4.0,4.0,85,0.00,,,0.00,,2013-01-28 07:11:00,
2013-01-28 01:21:00,20.0,16.0,-100.00,WNW,300,6.0,7.0,85,0.00,,,0.00,,2013-01-28 07:21:00,
2013-01-28 01:31:00,19.0,16.0,-100.00,NW,305,6.0,7.0,86,0.00,,,0.00,,2013-01-28 07:31:00,
2013-01-28 01:41:00,19.0,16.0,-100.00,NW,320,4.0,6.0,86,0.00,,,0.00,,2013-01-28 07:41:00,
2013-01-28 01:51:00,19.0,16.0,-100.00,WNW,295,4.0,5.0,86,0.00,,,0.00,,2013-01-28 07:51:00,
2013-01-28 02:01:00,19.0,16.0,-100.00,WNW,300,4.0,5.0,86,0.00,,,0.00,,2013-01-28 08:01:00,
2013-01-28 02:11:00,19.0,16.0,-100.00,NW,305,5.0,6.0,86,0.00,,,0.00,,2013-01-28 08:11:00,
2013-01-28 02:21:00,19.0,16.0,-100.00,NW,315,4.0,6.0,86,0.00,,,0.00,,2013-01-28 08:21:00,
2013-01-28 02:32:00,19.0,16.0,-100.00,NW,325,4.0,6.0,86,0.00,,,0.00,,2013-01-28 08:32:00,
2013-01-28 02:42:00,19.0,16.0,-100.00,NNW,330,4.0,5.0,86,0.00,,,0.00,,2013-01-28 08:42:00,
2013-01-28 02:52:00,19.0,16.0,-100.00,NNW,340,4.0,6.0,87,0.00,,,0.00,,2013-01-28 08:52:00,
2013-01-28 03:02:00,19.0,16.0,-100.00,NW,315,4.0,6.0,87,0.00,,,0.00,,2013-01-28 09:02:00,
2013-01-28 03:11:00,18.0,16.0,-100.00,NW,310,7.0,7.0,87,0.00,,,0.00,,2013-01-28 09:11:00,
2013-01-28 03:21:00,18.0,16.0,-100.00,NW,320,3.0,7.0,87,0.00,,,0.00,,2013-01-28 09:21:00,
2013-01-28 03:32:00,18.0,16.0,-100.00,NW,305,5.0,6.0,87,0.00,,,0.00,,2013-01-28 09:32:00,
2013-01-28 03:42:00,18.0,16.0,-100.00,WNW,290,6.0,7.0,88,0.00,,,0.00,,2013-01-28 09:42:00,
2013-01-28 03:51:00,18.0,16.0,-100.00,NW,310,6.0,8.0,89,0.00,,,0.00,,2013-01-28 09:51:00,
2013-01-28 04:02:00,18.0,16.0,-100.00,NW,305,6.0,7.0,90,0.00,,,0.00,,2013-01-28 10:02:00,
2013-01-28 04:11:00,18.0,16.0,-100.00,NW,320,6.0,6.0,92,0.00,,,0.00,,2013-01-28 10:11:00,
2013-01-28 04:21:00,18.0,16.0,-100.00,NNW,330,6.0,6.0,92,0.00,,,0.00,,2013-01-28 10:21:00,
2013-01-28 04:31:00,18.0,16.0,-100.00,NNW,335,4.0,6.0,93,0.00,,,0.00,,2013-01-28 10:31:00,
2013-01-28 04:41:00,18.0,16.0,-100.00,NNW,345,4.0,5.0,93,0.00,,,0.00,,2013-01-28 10:41:00,
2013-01-28 04:51:00,18.0,16.0,-100.00,North,5,4.0,6.0,93,0.00,,,0.00,,2013-01-28 10:51:00,
2013-01-28 05:02:00,18.0,18.0,-100.00,North,350,6.0,7.0,94,0.00,,,0.00,,2013-01-28 11:02:00,
2013-01-28 05:11:00,18.0,18.0,-100.00,NW,315,4.0,6.0,94,0.00,,,0.00,,2013-01-28 11:11:00,
2013-01-28 05:22:00,18.0,18.0,-100.00,West,280,4.0,6.0,94,0.00,,,0.00,,2013-01-28 11:22:00,
2013-01-28 05:32:00,18.0,18.0,-100.00,West,265,3.0,5.0,94,0.00,,,0.00,,2013-01-28 11:32:00,
2013-01-28 05:42:00,18.0,18.0,-100.00,WSW,250,4.0,4.0,94,0.00,,,0.00,,2013-01-28 11:42:00,
2013-01-28 05:52:00,19.0,18.0,-100.00,SW,225,5.0,6.0,94,0.00,,,0.00,,2013-01-28 11:52:00,
2013-01-28 06:03:00,19.0,18.0,-100.00,West,270,3.0,7.0,94,0.00,,,0.00,,2013-01-28 12:03:00,
2013-01-28 06:11:00,19.0,18.0,-100.00,WSW,255,4.0,5.0,94,0.00,,,0.00,,2013-01-28 12:11:00,
2013-01-28 06:23:00,19.0,18.0,-100.00,SW,235,4.0,6.0,94,0.00,,,0.00,,2013-01-28 12:23:00,
2013-01-28 06:33:00,19.0,18.0,-100.00,WSW,240,5.0,6.0,95,0.00,,,0.00,,2013-01-28 12:33:00,
2013-01-28 06:42:00,19.0,18.0,-100.00,WSW,255,4.0,6.0,95,0.00,,,0.00,,2013-01-28 12:42:00,
2013-01-28 06:52:00,19.0,18.0,-100.00,West,265,3.0,6.0,95,0.00,,,0.00,,2013-01-28 12:52:00,
2013-01-28 07:02:00,19.0,18.0,-100.00,NNE,25,1.0,2.0,95,0.00,,,0.00,,2013-01-28 13:02:00,
2013-01-28 07:12:00,19.0,18.0,-100.00,NE,45,2.0,3.0,95,0.00,,,0.00,,2013-01-28 13:12:00,
2013-01-28 07:23:00,20.0,18.0,-100.00,NE,45,4.0,5.0,95,0.00,,,0.00,,2013-01-28 13:23:00,
2013-01-28 07:33:00,20.0,19.0,-100.00,NE,45,7.0,7.0,95,0.00,,,0.00,,2013-01-28 13:33:00,
2013-01-28 07:42:00,20.0,19.0,-100.00,NNE,20,2.0,6.0,95,0.00,,,0.00,,2013-01-28 13:42:00,
2013-01-28 07:52:00,20.0,19.0,-100.00,NW,315,1.0,3.0,95,0.00,,,0.00,,2013-01-28 13:52:00,
2013-01-28 08:03:00,20.0,18.0,-100.00,NW,325,2.0,3.0,95,0.00,,,0.00,,2013-01-28 14:03:00,
2013-01-28 08:12:00,20.0,19.0,-100.00,North,350,2.0,2.0,95,0.00,,,0.00,,2013-01-28 14:12:00,
2013-01-28 08:22:00,20.0,18.0,-100.00,NW,315,2.0,2.0,95,0.00,,,0.00,,2013-01-28 14:22:00,
2013-01-28 08:33:00,20.0,18.0,-100.00,WNW,285,1.0,3.0,95,0.00,,,0.00,,2013-01-28 14:33:00,
2013-01-28 08:42:00,20.0,19.0,-100.00,WSW,240,2.0,3.0,95,0.00,,,0.00,,2013-01-28 14:42:00,
2013-01-28 08:52:00,20.0,19.0,-100.00,West,260,2.0,3.0,95,0.00,,,0.00,,2013-01-28 14:52:00,
2013-01-28 09:03:00,20.0,19.0,-100.00,WNW,285,3.0,4.0,95,0.00,,,0.00,,2013-01-28 15:03:00,
2013-01-28 09:12:00,20.0,19.0,-100.00,WNW,295,2.0,4.0,95,0.00,,,0.00,,2013-01-28 15:12:00,
2013-01-28 09:23:00,20.0,19.0,-100.00,WSW,255,1.0,4.0,95,0.00,,,0.00,,2013-01-28 15:23:00,
2013-01-28 09:33:00,20.0,19.0,-100.00,South,185,1.0,2.0,95,0.00,,,0.00,,2013-01-28 15:33:00,
2013-01-28 09:43:00,20.0,19.0,-100.00,South,175,3.0,3.0,95,0.00,,,0.00,,2013-01-28 15:43:00,
2013-01-28 09:52:00,21.0,19.0,-100.00,SSW,200,4.0,4.0,95,0.00,,,0.00,,2013-01-28 15:52:00,
2013-01-28 10:04:00,21.0,19.0,-100.00,South,190,3.0,4.0,95,0.00,,,0.00,,2013-01-28 16:04:00,
2013-01-28 10:12:00,21.0,19.0,-100.00,SW,230,4.0,4.0,95,0.00,,,0.00,,2013-01-28 16:12:00,
2013-01-28 10:22:00,21.0,19.0,-100.00,SW,230,2.0,4.0,95,0.00,,,0.00,,2013-01-28 16:22:00,
2013-01-28 10:32:00,21.0,19.0,-100.00,WSW,245,1.0,3.0,95,0.00,,,0.00,,2013-01-28 16:32:00,
2013-01-28 10:42:00,21.0,21.0,-100.00,WSW,240,1.0,2.0,95,0.00,,,0.00,,2013-01-28 16:42:00,
2013-01-28 10:52:00,22.0,21.0,-100.00,South,190,1.0,2.0,95,0.00,,,0.00,,2013-01-28 16:52:00,
2013-01-28 11:01:00,21.0,21.0,-100.00,South,175,2.0,3.0,95,0.00,,,0.00,,2013-01-28 17:01:00,
2013-01-28 11:12:00,22.0,21.0,-100.00,SSE,150,1.0,3.0,95,0.00,,,0.00,,2013-01-28 17:12:00,
2013-01-28 11:22:00,22.0,21.0,-100.00,ESE,105,3.0,4.0,95,0.00,,,0.00,,2013-01-28 17:22:00,
2013-01-28 11:32:00,22.0,21.0,-100.00,East,95,3.0,4.0,96,0.00,,,0.00,,2013-01-28 17:32:00,
2013-01-28 11:42:00,22.0,21.0,-100.00,SE,145,2.0,3.0,96,0.00,,,0.00,,2013-01-28 17:42:00,
2013-01-28 11:52:00,23.0,21.0,-100.00,South,170,1.0,3.0,96,0.00,,,0.00,,2013-01-28 17:52:00,
2013-01-28 12:02:00,23.0,21.0,-100.00,SSW,210,2.0,3.0,96,0.00,,,0.00,,2013-01-28 18:02:00,
2013-01-28 12:12:00,23.0,21.0,-100.00,SSW,195,2.0,3.0,96,0.00,,,0.00,,2013-01-28 18:12:00,
2013-01-28 12:23:00,23.0,23.0,-100.00,South,175,2.0,4.0,96,0.00,,,0.00,,2013-01-28 18:23:00,
2013-01-28 12:33:00,24.0,23.0,-100.00,SSW,205,2.0,3.0,96,0.00,,,0.00,,2013-01-28 18:33:00,
2013-01-28 12:42:00,24.0,23.0,-100.00,SSW,210,3.0,4.0,96,0.00,,,0.00,,2013-01-28 18:42:00,
2013-01-28 12:52:00,24.0,23.0,-100.00,SSW,210,3.0,4.0,96,0.00,,,0.00,,2013-01-28 18:52:00,
2013-01-28 13:02:00,24.0,23.0,-100.00,SSW,195,3.0,4.0,96,0.00,,,0.00,,2013-01-28 19:02:00,
2013-01-28 13:12:00,24.0,23.0,-100.00,SSW,205,3.0,4.0,96,0.00,,,0.00,,2013-01-28 19:12:00,
2013-01-28 13:22:00,24.0,23.0,-100.00,WSW,245,4.0,5.0,96,0.00,,,0.00,,2013-01-28 19:22:00,
2013-01-28 13:32:00,24.0,23.0,-100.00,WSW,255,4.0,6.0,96,0.00,,,0.00,,2013-01-28 19:32:00,
2013-01-28 13:42:00,25.0,23.0,-100.00,WSW,255,4.0,4.0,96,0.00,,,0.00,,2013-01-28 19:42:00,
2013-01-28 13:52:00,25.0,25.0,-100.00,WSW,255,3.0,5.0,96,0.00,,,0.00,,2013-01-28 19:52:00,
2013-01-28 14:02:00,25.0,25.0,-100.00,WSW,255,2.0,3.0,96,0.00,,,0.00,,2013-01-28 20:02:00,
2013-01-28 14:11:00,26.0,25.0,-100.00,WSW,245,1.0,2.0,96,0.00,,,0.00,,2013-01-28 20:11:00,
2013-01-28 14:22:00,26.0,25.0,-100.00,NW,315,1.0,1.0,96,0.00,,,0.00,,2013-01-28 20:22:00,
2013-01-28 14:33:00,26.0,25.0,-100.00,NW,325,1.0,2.0,96,0.00,,,0.00,,2013-01-28 20:33:00,
2013-01-28 14:42:00,27.0,25.0,-100.00,North,5,1.0,1.0,96,0.00,,,0.00,,2013-01-28 20:42:00,
2013-01-28 14:52:00,27.0,27.0,-100.00,North,10,1.0,2.0,96,0.00,,,0.00,,2013-01-28 20:52:00,
2013-01-28 15:03:00,26.0,25.0,-100.00,SSE,160,2.0,2.0,96,0.00,,,0.00,,2013-01-28 21:03:00,
2013-01-28 15:11:00,26.0,25.0,-100.00,SSE,165,2.0,3.0,96,0.00,,,0.00,,2013-01-28 21:11:00,
2013-01-28 15:22:00,26.0,25.0,-100.00,WSW,245,3.0,4.0,96,0.00,,,0.00,,2013-01-28 21:22:00,
2013-01-28 15:33:00,27.0,25.0,-100.00,WNW,295,3.0,4.0,96,0.00,,,0.00,,2013-01-28 21:33:00,
2013-01-28 15:42:00,27.0,25.0,-100.00,NNW,340,2.0,5.0,96,0.00,,,0.00,,2013-01-28 21:42:00,
2013-01-28 15:52:00,27.0,25.0,-100.00,NNW,330,3.0,4.0,95,0.00,,,0.00,,2013-01-28 21:52:00,
2013-01-28 16:02:00,26.0,25.0,-100.00,NNW,330,2.0,4.0,93,0.00,,,0.00,,2013-01-28 22:02:00,
2013-01-28 16:11:00,26.0,23.0,-100.00,WNW,300,2.0,3.0,91,0.00,,,0.00,,2013-01-28 22:11:00,
2013-01-28 16:22:00,26.0,23.0,-100.00,WNW,295,2.0,3.0,89,0.00,,,0.00,,2013-01-28 22:22:00,
2013-01-28 16:32:00,26.0,23.0,-100.00,West,270,1.0,3.0,88,0.00,,,0.00,,2013-01-28 22:32:00,
2013-01-28 16:42:00,26.0,23.0,-100.00,NNW,340,2.0,2.0,87,0.00,,,0.00,,2013-01-28 22:42:00,
2013-01-28 16:52:00,26.0,23.0,-100.00,NNW,330,1.0,2.0,87,0.00,,,0.00,,2013-01-28 22:52:00,
2013-01-28 17:02:00,26.0,23.0,-100.00,NNW,335,0.0,1.0,87,0.00,,,0.00,,2013-01-28 23:02:00,
2013-01-28 17:11:00,26.0,23.0,-100.00,East,80,1.0,1.0,87,0.00,,,0.00,,2013-01-28 23:11:00,
2013-01-28 17:22:00,26.0,23.0,-100.00,SE,130,0.0,2.0,87,0.00,,,0.00,,2013-01-28 23:22:00,
2013-01-28 17:32:00,26.0,23.0,-100.00,SSW,200,0.0,2.0,87,0.00,,,0.00,,2013-01-28 23:32:00,
2013-01-28 17:42:00,25.0,21.0,-100.00,South,190,1.0,1.0,87,0.00,,,0.00,,2013-01-28 23:42:00,
2013-01-28 17:52:00,25.0,21.0,-100.00,South,190,1.0,1.0,87,0.00,,,0.00,,2013-01-28 23:52:00,
2013-01-28 18:02:00,25.0,21.0,-100.00,South,190,1.0,1.0,87,0.00,,,0.00,,2013-01-29 00:02:00,
2013-01-28 18:12:00,25.0,21.0,-100.00,South,190,1.0,1.0,87,0.00,,,0.00,,2013-01-29 00:12:00,
2013-01-28 18:22:00,25.0,21.0,-100.00,SW,230,2.0,2.0,87,0.00,,,0.00,,2013-01-29 00:22:00,
2013-01-28 18:33:00,25.0,21.0,-100.00,WSW,240,3.0,3.0,87,0.00,,,0.00,,2013-01-29 00:33:00,
2013-01-28 18:42:00,25.0,21.0,-100.00,SW,225,3.0,4.0,88,0.00,,,0.00,,2013-01-29 00:42:00,
2013-01-28 18:52:00,24.0,21.0,-100.00,SW,235,4.0,4.0,88,0.00,,,0.00,,2013-01-29 00:52:00,
2013-01-28 19:02:00,24.0,21.0,-100.00,WSW,250,4.0,4.0,88,0.00,,,0.00,,2013-01-29 01:02:00,
2013-01-28 19:11:00,24.0,21.0,-100.00,WSW,250,4.0,4.0,88,0.00,,,0.00,,2013-01-29 01:11:00,
2013-01-28 19:22:00,24.0,21.0,-100.00,WSW,250,2.0,2.0,88,0.00,,,0.00,,2013-01-29 01:22:00,
2013-01-28 19:32:00,24.0,21.0,-100.00,West,260,2.0,2.0,88,0.00,,,0.00,,2013-01-29 01:32:00,
2013-01-28 19:42:00,24.0,21.0,-100.00,SW,235,1.0,2.0,88,0.00,,,0.00,,2013-01-29 01:42:00,
2013-01-28 19:52:00,24.0,21.0,-100.00,SSW,205,1.0,2.0,88,0.00,,,0.00,,2013-01-29 01:52:00,
2013-01-28 20:02:00,24.0,21.0,-100.00,SSW,205,1.0,2.0,88,0.00,,,0.00,,2013-01-29 02:02:00,
2013-01-28 20:12:00,24.0,21.0,-100.00,South,185,2.0,2.0,89,0.00,,,0.00,,2013-01-29 02:12:00,
2013-01-28 20:21:00,24.0,21.0,-100.00,SW,225,2.0,3.0,89,0.00,,,0.00,,2013-01-29 02:21:00,
2013-01-28 20:33:00,24.0,21.0,-100.00,SW,220,1.0,2.0,89,0.00,,,0.00,,2013-01-29 02:33:00,
2013-01-28 20:42:00,24.0,21.0,-100.00,SW,225,1.0,2.0,90,0.00,,,0.00,,2013-01-29 02:42:00,
2013-01-28 20:52:00,24.0,21.0,-100.00,South,185,1.0,2.0,90,0.00,,,0.00,,2013-01-29 02:52:00,
2013-01-28 21:03:00,24.0,21.0,-100.00,South,185,1.0,2.0,90,0.00,,,0.00,,2013-01-29 03:03:00,
2013-01-28 21:11:00,24.0,21.0,-100.00,South,185,1.0,2.0,90,0.00,,,0.00,,2013-01-29 03:11:00,
2013-01-28 21:21:00,23.0,21.0,-100.00,West,280,1.0,1.0,90,0.00,,,0.00,,2013-01-29 03:21:00,
2013-01-28 21:32:00,24.0,21.0,-100.00,SW,220,0.0,1.0,90,0.00,,,0.00,,2013-01-29 03:32:00,
2013-01-28 21:42:00,23.0,21.0,-100.00,SE,145,0.0,1.0,90,0.00,,,0.00,,2013-01-29 03:42:00,
2013-01-28 21:53:00,23.0,21.0,-100.00,East,95,0.0,1.0,90,0.00,,,0.00,,2013-01-29 03:53:00,
2013-01-28 22:02:00,23.0,21.0,-100.00,NW,325,0.0,1.0,90,0.00,,,0.00,,2013-01-29 04:02:00,
2013-01-28 22:11:00,23.0,21.0,-100.00,NW,325,0.0,1.0,90,0.00,,,0.00,,2013-01-29 04:11:00,
2013-01-28 22:21:00,22.0,21.0,-100.00,NW,315,2.0,3.0,91,0.00,,,0.00,,2013-01-29 04:21:00,
2013-01-28 22:32:00,22.0,21.0,-100.00,NNW,335,3.0,3.0,91,0.00,,,0.00,,2013-01-29 04:32:00,
2013-01-28 22:41:00,22.0,21.0,-100.00,North,350,4.0,4.0,92,0.00,,,0.00,,2013-01-29 04:41:00,
2013-01-28 22:52:00,23.0,21.0,-100.00,NNW,345,4.0,5.0,92,0.00,,,0.00,,2013-01-29 04:52:00,
2013-01-28 23:03:00,23.0,21.0,-100.00,NNW,345,2.0,4.0,92,0.00,,,0.00,,2013-01-29 05:03:00,
2013-01-28 23:12:00,23.0,21.0,-100.00,NNW,345,2.0,4.0,92,0.00,,,0.00,,2013-01-29 05:12:00,
2013-01-28 23:21:00,22.0,19.0,-100.00,NNW,330,2.0,3.0,92,0.00,,,0.00,,2013-01-29 05:21:00,
2013-01-28 23:32:00,22.0,19.0,-100.00,NNW,330,3.0,3.0,92,0.00,,,0.00,,2013-01-29 05:32:00,
2013-01-28 23:42:00,21.0,19.0,-100.00,WNW,295,6.0,6.0,92,0.00,,,0.00,,2013-01-29 05:42:00,
2013-01-28 23:52:00,21.0,19.0,-100.00,WNW,295,6.0,7.0,92,0.00,,,0.00,,2013-01-29 05:52:00,